Weather reports worldwide

Advertisment
Nice, France (7690): temperature & dewpoint: 16.06.2018 20:00:00 - 22.06.2018 20:00:00 (CEST)Nice, France (7690): temperature 5cm: 16.06.2018 20:00:00 - 22.06.2018 20:00:00 (CEST)Nice, France (7690): temperature -20cm & temperature -100cm: 16.06.2018 20:00:00 - 22.06.2018 20:00:00 (CEST)Nice, France (7690): wind speed & gusts: 16.06.2018 20:00:00 - 22.06.2018 20:00:00 (CEST)Nice, France (7690): wind direction: 16.06.2018 20:00:00 - 22.06.2018 20:00:00 (CEST)Nice, France (7690): reduced air pressure: 16.06.2018 20:00:00 - 22.06.2018 20:00:00 (CEST)Nice, France (7690): visibility: 16.06.2018 20:00:00 - 22.06.2018 20:00:00 (CEST)Nice, France (7690): sunshine duration: 16.06.2018 20:00:00 - 22.06.2018 20:00:00 (CEST)Nice, France (7690): precipitation: 16.06.2018 20:00:00 - 22.06.2018 20:00:00 (CEST)
Date & Time tt [°C] td [°C] tt 5cm [°C] tt -20cm [°C] tt -100cm [°C] ff [km/h] ff [kn] fx [km/h] fx [kn] dd ppp [hPa] vv [km] sd [min] rr [mm]
22.06.2018 20:00:00 24,5 20,4 24,9 23,6 22,1 9 5 19 10 NE 1012,7 15 0 0,0
22.06.2018 19:00:00 24,6 20,5 25,1 23,6 22,1 14 8 24 13 ENE 1012,6 15 0 0,0
22.06.2018 18:00:00 25,0 21,1 25,9 23,6 22,1 13 7 22 12 ENE 1012,4 15 4 0,0
22.06.2018 17:00:00 24,9 21,0 26,2 23,6 22,2 16 9 26 14 ENE 1012,0 20 7 0,0
22.06.2018 16:00:00 25,8 21,0 28,0 23,6 22,0 18 10 32 17 E 1011,6 20 4 0,0
22.06.2018 15:00:00 26,0 20,6 28,0 23,6 22,2 29 15 36 19 E 1011,4 20 3 0,0
22.06.2018 14:00:00 25,7 20,7 28,1 23,6 22,0 21 11 33 18 E 1011,7 20 22 0,0
22.06.2018 13:00:00 26,4 21,4 35,2 23,6 22,1 9 5 19 11 E 1011,6 20 60 0,0
22.06.2018 12:00:00 26,4 21,6 34,5 23,6 22,1 16 8 21 12 E 1011,4 20 60 0,0
22.06.2018 11:00:00 26,2 21,8 32,8 23,6 22,0 13 7 23 13 E 1010,8 20 60 0,0
22.06.2018 10:00:00 25,6 19,7 30,6 23,5 21,9 17 9 22 12 E 1010,6 20 60 0,0
22.06.2018 09:00:00 25,9 18,3 26,2 23,6 21,9 9 5 17 9 ENE 1010,8 20 60 0,0
22.06.2018 08:00:00 23,4 17,4 22,1 23,5 22,0 11 6 21 12 NNW 1010,7 20 33 0,0
22.06.2018 07:00:00 21,9 17,3 21,4 23,5 22,0 15 8 19 11 NNW 1010,7 20 0 0,0
22.06.2018 06:00:00 22,1 17,2 21,3 23,5 22,0 11 6 18 10 NNW 1010,9 20 0 0,0
22.06.2018 05:00:00 22,7 17,8 21,5 23,5 22,0 7 4 12 7 NNW 1011,2 20 0 0,0
22.06.2018 04:00:00 22,8 17,7 21,0 23,5 21,9 7 4 11 6 NNW 1011,4 20 0 0,0
22.06.2018 03:00:00 22,7 17,8 21,4 23,5 22,0 7 4 13 7 NE 1011,8 20 0 0,0
22.06.2018 02:00:00 23,3 18,8 22,3 23,5 21,9 5 3 18 10 NNE 1012,3 20 0 0,0
22.06.2018 01:00:00 23,8 21,5 22,9 23,4 21,9 13 7 17 9 ENE 1012,7 20 0 0,0
22.06.2018 00:00:00 24,5 18,0 21,9 23,4 21,9 9 5 15 8 N 1012,8 30 0 0,0
21.06.2018 23:00:00 23,1 18,8 22,1 23,4 21,9 10 5 16 9 WNW 1012,4 30 0 0,0
21.06.2018 22:00:00 23,4 20,9 22,3 23,4 22,0 9 5 16 9 WSW 1012,6 30 0 0,0
21.06.2018 21:00:00 23,6 20,1 23,0 23,4 21,7 9 5 12 6 WSW 1012,7 30 0 0,0
21.06.2018 20:00:00 24,3 20,4 24,4 23,4 21,9 8 5 13 7 SSW 1013,1 30 5 0,0
21.06.2018 19:00:00 25,4 21,3 26,8 23,3 21,8 7 4 8 5 S 1013,9 30 8 0,0
21.06.2018 18:00:00 25,5 20,3 26,4 23,4 21,9 6 3 10 5 ESE 1014,3 30 0 0,0
21.06.2018 17:00:00 25,4 20,6 27,0 23,4 21,9 5 3 10 6 S 1014,8 30 0 0,0
21.06.2018 16:00:00 26,4 20,7 30,5 23,4 21,8 6 3 12 6 S 1015,3 30 37 0,0
21.06.2018 15:00:00 26,7 21,0 36,7 23,4 21,9 7 4 13 7 ESE 1015,5 30 60 0,0
21.06.2018 14:00:00 26,9 21,0 36,0 23,4 21,8 10 5 13 7 SSE 1015,8 30 60 0,0
21.06.2018 13:00:00 26,5 21,0 34,8 23,4 21,9 9 5 13 7 E 1016,1 30 60 0,0
21.06.2018 12:00:00 26,0 21,0 35,3 23,4 21,8 8 4 13 7 SE 1016,6 30 60 0,0
21.06.2018 11:00:00 26,7 20,1 34,1 23,4 21,8 9 5 12 7 E 1016,5 30 60 0,0
21.06.2018 10:00:00 26,3 19,4 32,6 23,4 21,7 8 5 13 7 ENE 1016,8 30 60 0,0
21.06.2018 09:00:00 26,7 16,9 29,5 23,4 21,8 11 6 22 12 NE 1017,0 30 60 0,0
21.06.2018 08:00:00 25,6 15,3 25,1 23,4 21,8 10 5 24 13 N 1016,8 30 60 0,0
21.06.2018 07:00:00 24,3 15,2 23,3 23,3 21,7 16 9 25 13 NNW 1016,6 30 42 0,0
21.06.2018 06:00:00 23,9 14,9 23,1 23,3 21,7 17 9 24 13 NNW 1016,5 30 0 0,0
21.06.2018 05:00:00 24,1 15,0 23,3 23,3 21,6 13 7 22 12 N 1016,6 40 0 0,0
21.06.2018 04:00:00 24,5 15,1 23,7 23,3 21,7 13 7 21 12 NNW 1017,2 40 0 0,0
21.06.2018 03:00:00 24,7 15,1 23,5 23,3 21,8 15 8 21 11 NNW 1017,5 40 0 0,0
21.06.2018 02:00:00 24,6 15,0 23,0 23,3 21,7 12 6 16 9 NNW 1017,8 40 0 0,0
21.06.2018 01:00:00 24,7 14,5 23,3 23,3 21,7 12 6 17 9 NNW 1018,0 40 0 0,0
21.06.2018 00:00:00 25,2 14,3 23,8 23,2 21,7 10 5 14 8 NNW 1018,2 40 0 0,0
20.06.2018 23:00:00 26,1 14,2 22,2 23,2 21,7 6 4 10 5 N 1018,3 40 0 0,0
20.06.2018 22:00:00 25,6 17,0 23,0 23,2 21,7 3 2 10 5 ESE 1018,0 40 0 0,0
20.06.2018 21:00:00 25,6 15,0 24,1 23,2 21,6 5 3 9 5 SSW 1017,8 40 0 0,0
20.06.2018 20:00:00 26,7 16,3 27,5 23,2 21,7 6 3 10 6 S 1017,7 40 9 0,0
20.06.2018 19:00:00 27,5 16,1 30,4 23,2 21,6 7 4 9 5 S 1017,6 40 24 0,0
20.06.2018 18:00:00 30,5 13,3 38,2 23,2 21,6 5 3 16 8 SE 1017,9 35 60 0,0
20.06.2018 17:00:00 29,2 15,3 37,7 23,2 21,7 9 5 16 9 SSW 1018,4 35 60 0,0
20.06.2018 16:00:00 29,5 13,7 39,2 23,2 21,7 10 5 16 9 SW 1018,8 35 60 0,0
20.06.2018 15:00:00 29,3 17,2 40,4 23,2 21,7 10 5 13 7 S 1019,1 35 60 0,0
20.06.2018 14:00:00 28,9 13,9 36,4 23,2 21,6 9 5 13 7 SSW 1019,4 35 54 0,0
20.06.2018 13:00:00 29,2 16,0 39,8 23,2 21,7 6 4 9 5 S 1019,8 35 60 0,0
20.06.2018 12:00:00 29,7 14,7 34,2 23,2 21,6 3 1 8 4 E 1020,3 35 36 0,0
20.06.2018 11:00:00 28,5 14,7 26,6 23,2 21,7 5 3 19 10 NE 1020,3 35 14 0,0
20.06.2018 10:00:00 25,4 15,7 26,7 23,2 21,6 14 8 20 11 NNW 1020,2 30 2 0,0
20.06.2018 09:00:00 24,8 15,7 24,3 23,2 21,6 16 8 21 11 NNW 1019,9 30 0 0,0
20.06.2018 08:00:00 23,8 15,3 23,8 23,2 21,6 14 7 27 15 NNW 1019,7 30 0 0,0
20.06.2018 07:00:00 23,9 15,1 22,7 23,2 21,6 13 7 22 12 NNW 1019,3 30 0 0,0
20.06.2018 06:00:00 23,6 14,9 22,6 23,1 21,6 12 6 20 11 NNW 1018,9 30 0 0,0
20.06.2018 05:00:00 24,1 14,5 22,9 23,1 21,6 13 7 20 11 NNW 1018,5 30 0 0,0
20.06.2018 04:00:00 24,7 14,5 23,3 23,1 21,5 11 6 21 11 N 1018,4 30 0 0,0
20.06.2018 03:00:00 24,7 14,8 23,5 23,1 21,6 16 8 22 12 N 1018,3 30 0 0,0
20.06.2018 02:00:00 24,4 14,8 23,4 23,0 21,5 14 8 22 12 NNW 1018,7 30 0 0,0
20.06.2018 01:00:00 24,7 15,1 23,2 23,0 21,6 14 8 19 11 NNW 1018,7 30 0 0,0
20.06.2018 00:00:00 24,4 15,6 21,6 23,0 21,5 13 7 17 9 NNW 1018,7 30 0 0,0
19.06.2018 23:00:00 24,3 18,5 21,2 23,0 21,5 3 2 7 4 E 1018,6 30 0 0,0
19.06.2018 22:00:00 24,7 16,9 21,6 23,0 21,5 2 1 12 6 SSW 1018,1 30 0 0,0
19.06.2018 21:00:00 24,9 19,5 24,6 23,0 21,5 9 5 13 7 SSW 1017,5 40 48 0,0
19.06.2018 20:00:00 26,1 20,2 28,4 23,0 21,5 6 3 9 5 S 1017,5 40 60 0,0
19.06.2018 19:00:00 26,8 19,9 32,5 23,0 21,5 5 3 8 4 SSE 1017,8 40 60 0,0
19.06.2018 18:00:00 27,0 19,1 34,6 23,0 21,5 5 3 9 5 SE 1018,3 40 60 0,0
19.06.2018 17:00:00 26,8 19,7 35,4 23,0 21,6 7 4 9 5 SE 1018,7 40 60 0,0
19.06.2018 16:00:00 26,5 20,6 36,1 23,0 21,5 6 3 9 5 ESE 1019,0 40 60 0,0
19.06.2018 15:00:00 26,7 20,3 36,1 23,0 21,4 5 3 12 6 ESE 1019,3 40 60 0,0
19.06.2018 14:00:00 26,4 20,5 35,5 23,0 21,4 9 5 14 8 ESE 1019,4 40 60 0,0
19.06.2018 13:00:00 27,2 19,5 34,6 23,0 21,4 12 6 20 11 ESE 1019,5 40 60 0,0
19.06.2018 12:00:00 26,9 19,0 34,3 23,0 21,4 16 9 19 10 ESE 1019,5 40 60 0,0
19.06.2018 11:00:00 26,9 17,9 34,8 23,0 21,4 10 6 15 8 E 1019,5 40 60 0,0
19.06.2018 10:00:00 27,4 16,7 33,4 23,0 21,4 5 3 10 6 ENE 1019,3 40 60 0,0
19.06.2018 09:00:00 26,7 15,4 28,4 22,9 21,4 7 4 16 9 NNE 1019,2 40 60 0,0
19.06.2018 08:00:00 24,7 15,3 24,6 22,9 21,4 10 6 23 12 NNW 1018,8 40 60 0,0
19.06.2018 07:00:00 23,4 14,9 22,0 22,9 21,4 12 7 23 12 NNW 1018,4 40 43 0,0
19.06.2018 06:00:00 22,8 14,9 21,9 22,9 21,5 15 8 23 13 NNW 1017,7 40 0 0,0
19.06.2018 05:00:00 23,0 14,8 22,1 22,9 21,5 14 8 23 13 NNW 1017,4 25 0 0,0
19.06.2018 04:00:00 23,3 14,8 22,0 22,9 21,4 13 7 19 11 NNW 1017,1 25 0 0,0
19.06.2018 03:00:00 23,6 15,1 22,2 22,9 21,4 13 7 19 11 N 1017,1 25 0 0,0
19.06.2018 02:00:00 24,1 15,0 22,6 22,8 21,3 15 8 21 11 NNW 1017,1 25 0 0,0
19.06.2018 01:00:00 24,2 15,1 22,4 22,8 21,4 11 6 16 9 NNW 1017,0 25 0 0,0
19.06.2018 00:00:00 24,3 15,8 22,9 22,8 21,4 11 6 13 7 NNW 1017,2 25 0 0,0
18.06.2018 23:00:00 24,7 16,4 21,3 22,8 21,4 9 5 12 7 NNW 1016,9 25 0 0,0
18.06.2018 22:00:00 23,7 18,3 21,7 22,7 21,3 2 1 11 6 WSW 1016,5 25 0 0,0
18.06.2018 21:00:00 24,8 17,5 23,9 22,7 21,4 10 5 16 9 SW 1016,0 40 5 0,0
18.06.2018 20:00:00 25,4 19,5 25,9 22,7 21,3 11 6 16 8 SW 1015,8 40 13 0,0
18.06.2018 19:00:00 26,5 19,4 29,2 22,7 21,4 11 6 16 9 SSW 1015,8 40 45 0,0
18.06.2018 18:00:00 26,1 20,7 32,0 22,7 21,2 13 7 18 10 SSW 1016,0 40 55 0,0
18.06.2018 17:00:00 26,7 19,6 36,2 22,7 21,3 9 5 15 8 S 1016,1 40 60 0,0
18.06.2018 16:00:00 26,8 18,4 35,7 22,7 21,2 9 5 12 7 S 1016,2 40 60 0,0
18.06.2018 15:00:00 26,0 19,2 36,5 22,7 21,4 9 5 11 6 SSE 1016,3 40 60 0,0
18.06.2018 14:00:00 25,7 19,3 35,0 22,7 21,2 6 3 10 5 SSE 1016,2 40 60 0,0
18.06.2018 13:00:00 24,9 20,2 29,0 22,7 21,4 7 4 11 6 SSE 1016,4 40 55 0,0
18.06.2018 12:00:00 23,9 20,0 27,8 22,7 21,2 6 4 10 5 SSE 1016,2 40 11 0,0
18.06.2018 11:00:00 23,5 20,0 27,9 22,7 21,3 6 4 8 5 SSE 1016,0 40 7 0,0
18.06.2018 10:00:00 24,1 19,4 26,4 22,7 21,3 5 3 6 4 ESE 1015,9 40 27 0,0
18.06.2018 09:00:00 23,2 19,6 23,5 22,7 21,2 5 3 12 7 NE 1015,9 40 2 0,0
18.06.2018 08:00:00 23,4 16,7 21,7 22,6 21,2 5 3 22 12 ENE 1015,1 40 26 0,0
18.06.2018 07:00:00 21,9 15,7 20,5 22,6 21,1 11 6 17 9 N 1014,6 40 0 0,0
18.06.2018 06:00:00 21,6 16,1 20,3 22,6 21,3 8 4 13 7 NNW 1014,4 40 0 0,0
18.06.2018 05:00:00 21,8 17,2 20,7 22,6 21,3 5 3 11 6 N 1014,1 40 0 0,0
18.06.2018 04:00:00 22,0 19,2 20,9 22,6 21,3 9 5 13 7 NNE 1014,2 40 0 0,0
18.06.2018 03:00:00 22,5 20,4 21,5 22,5 21,2 10 5 19 10 E 1014,1 40 0 0,0
18.06.2018 02:00:00 22,7 20,0 20,8 22,5 21,2 18 10 27 14 ENE 1014,0 40 0 0,0
18.06.2018 01:00:00 23,2 17,0 20,8 22,5 21,2 4 2 14 8 NNE 1013,9 40 0 0,0
18.06.2018 00:00:00 21,9 17,5 20,6 22,5 21,1 11 6 15 8 NNW 1014,0 40 0 0,0
17.06.2018 23:00:00 22,9 19,3 21,0 22,5 21,1 5 3 10 5 W 1014,1 40 0 0,0
17.06.2018 22:00:00 22,5 19,9 21,7 22,4 21,1 9 5 14 8 W 1013,9 40 0 0,0
17.06.2018 21:00:00 23,0 20,5 23,0 22,4 21,2 5 3 13 7 SSW 1013,5 40 0 0,0
17.06.2018 20:00:00 23,5 19,8 23,9 22,4 21,0 8 4 13 7 SSW 1013,7 40 22 0,0
17.06.2018 19:00:00 24,7 19,3 29,3 22,4 21,0 9 5 13 7 SSW 1013,6 40 58 0,0
17.06.2018 18:00:00 24,8 19,2 28,1 22,4 21,2 5 3 12 7 S 1013,9 40 46 0,0
17.06.2018 17:00:00 24,8 19,8 33,4 22,4 21,2 9 5 12 7 SE 1013,9 40 60 0,0
17.06.2018 16:00:00 24,7 19,8 33,7 22,4 21,1 8 4 11 6 SSE 1014,4 40 60 0,0
17.06.2018 15:00:00 24,3 20,0 32,2 22,4 21,1 8 4 11 6 SE 1014,6 40 58 0,0
17.06.2018 14:00:00 24,8 20,3 33,1 22,4 21,1 8 4 12 7 ESE 1015,0 40 60 0,0
17.06.2018 13:00:00 24,4 20,3 32,9 22,4 21,1 8 4 13 7 ESE 1014,9 40 60 0,0
17.06.2018 12:00:00 24,1 20,2 31,8 22,4 21,0 9 5 14 7 ESE 1014,8 40 60 0,0
17.06.2018 11:00:00 24,1 20,2 30,0 22,4 21,0 11 6 14 8 ESE 1014,5 40 60 0,0
17.06.2018 10:00:00 23,7 19,2 30,2 22,3 20,9 11 6 13 7 ESE 1014,2 40 60 0,0
17.06.2018 09:00:00 23,7 17,9 27,7 22,4 21,1 6 4 10 6 E 1013,9 40 60 0,0
17.06.2018 08:00:00 23,3 18,2 21,8 22,3 20,9 8 4 11 6 NNE 1013,8 40 57 0,0
17.06.2018 07:00:00 21,5 16,0 19,5 22,3 21,1 6 3 9 5 N 1013,6 40 1 0,0
17.06.2018 06:00:00 20,8 16,0 18,8 22,3 21,1 6 3 10 6 N 1013,4 40 0 0,0
17.06.2018 05:00:00 21,0 16,0 19,5 22,2 21,0 9 5 11 6 NE 1012,9 40 0 0,0
17.06.2018 04:00:00 21,4 17,0 20,2 22,3 21,0 7 4 11 6 NNE 1012,9 20 0 0,0
17.06.2018 03:00:00 22,1 17,0 20,5 22,2 21,0 7 4 16 9 N 1013,1 20 0 0,0
17.06.2018 02:00:00 22,4 15,5 20,4 22,2 21,0 6 3 10 5 NNE 1012,9 20 0 0,0
17.06.2018 01:00:00 22,8 15,1 20,8 22,2 21,0 6 3 13 7 NNE 1012,7 20 0 0,0
17.06.2018 00:00:00 22,1 15,7 20,0 22,1 21,0 12 6 17 9 NW 1012,7 20 0 0,0
16.06.2018 23:00:00 21,8 18,8 20,4 22,1 21,1 6 3 8 5 W 1012,5 20 0 0,0
16.06.2018 22:00:00 22,2 19,6 20,5 22,1 20,9 5 3 6 4 S 1012,2 20 0 0,0
16.06.2018 21:00:00 22,4 19,6 21,8 22,1 21,0 4 2 6 3 S 1012,0 30 7 0,0
16.06.2018 20:00:00 23,4 19,5 25,1 22,1 21,0 2 1 9 5 SE 1012,2 40 55 0,0

tt = temperature
td = dewpoint
tt 5cm = temperature 5cm
tt -20cm = temperature -20cm
tt -100cm = temperature -100cm
ff = wind speed
fx = gusts
dd = wind direction
ppp = reduced air pressure
vv = visibility
sd = sunshine duration
rr = precipitation

Next stations